<?xml version="1.0" encoding="UTF-8" standalone="no" ?>
<gpx xmlns="http://www.topografix.com/GPX/1/1" xmlns:xsi="http://www.w3.org/2001/XMLSchema-instance" xsi:schemaLocation="http://www.topografix.com/GPX/1/1 http://www.topografix.com/GPX/1/1/gpx.xsd" version="1.1" creator="VisuGPX - https://www.visugpx.com">
  <metadata>
    <name>Escagnolles</name>
    <desc><![CDATA[Parcours Escagnolles]]></desc>
  </metadata>
  <trk>
    <name><![CDATA[10 nov. 2015]]></name>
    <cmt><![CDATA[11:11:12]]></cmt>
    <desc><![CDATA[comment ...]]></desc>
    <trkseg>
      <trkpt lat="43.729" lon="6.78101">
        <ele>956.6</ele>
        <time>2015-11-10T10:11:12Z</time>
      </trkpt>
      <trkpt lat="43.72926" lon="6.78079">
        <ele>957.6</ele>
        <time>2015-11-10T10:11:12Z</time>
      </trkpt>
      <trkpt lat="43.72951" lon="6.78043">
        <ele>956.9</ele>
        <time>2015-11-10T10:11:12Z</time>
      </trkpt>
      <trkpt lat="43.7296" lon="6.78006">
        <ele>957.9</ele>
        <time>2015-11-10T10:11:12Z</time>
      </trkpt>
      <trkpt lat="43.72946" lon="6.7797">
        <ele>954.6</ele>
        <time>2015-11-10T10:11:12Z</time>
      </trkpt>
      <trkpt lat="43.72937" lon="6.77931">
        <ele>953.1</ele>
        <time>2015-11-10T10:11:12Z</time>
      </trkpt>
      <trkpt lat="43.72935" lon="6.77895">
        <ele>952.2</ele>
        <time>2015-11-10T10:11:12Z</time>
      </trkpt>
      <trkpt lat="43.72937" lon="6.77858">
        <ele>951.3</ele>
        <time>2015-11-10T10:11:12Z</time>
      </trkpt>
      <trkpt lat="43.72952" lon="6.77783">
        <ele>951.6</ele>
        <time>2015-11-10T10:11:12Z</time>
      </trkpt>
      <trkpt lat="43.72999" lon="6.7756">
        <ele>944.1</ele>
        <time>2015-11-10T10:11:12Z</time>
      </trkpt>
      <trkpt lat="43.72993" lon="6.77524">
        <ele>942.5</ele>
        <time>2015-11-10T10:11:12Z</time>
      </trkpt>
      <trkpt lat="43.72957" lon="6.77341">
        <ele>933.8</ele>
        <time>2015-11-10T10:11:12Z</time>
      </trkpt>
      <trkpt lat="43.72977" lon="6.77268">
        <ele>932</ele>
        <time>2015-11-10T10:11:12Z</time>
      </trkpt>
      <trkpt lat="43.73039" lon="6.77086">
        <ele>927.7</ele>
        <time>2015-11-10T10:11:12Z</time>
      </trkpt>
      <trkpt lat="43.73038" lon="6.77049">
        <ele>927.6</ele>
        <time>2015-11-10T10:11:12Z</time>
      </trkpt>
      <trkpt lat="43.73033" lon="6.76976">
        <ele>927.9</ele>
        <time>2015-11-10T10:11:12Z</time>
      </trkpt>
      <trkpt lat="43.73045" lon="6.76938">
        <ele>925.6</ele>
        <time>2015-11-10T10:11:12Z</time>
      </trkpt>
      <trkpt lat="43.73084" lon="6.76828">
        <ele>919.6</ele>
        <time>2015-11-10T10:11:12Z</time>
      </trkpt>
      <trkpt lat="43.73111" lon="6.76805">
        <ele>917</ele>
        <time>2015-11-10T10:11:12Z</time>
      </trkpt>
      <trkpt lat="43.73188" lon="6.76706">
        <ele>905.6</ele>
        <time>2015-11-10T10:11:12Z</time>
      </trkpt>
      <trkpt lat="43.73211" lon="6.7667">
        <ele>901</ele>
        <time>2015-11-10T10:11:12Z</time>
      </trkpt>
      <trkpt lat="43.7329" lon="6.76599">
        <ele>892.4</ele>
        <time>2015-11-10T10:11:12Z</time>
      </trkpt>
      <trkpt lat="43.73343" lon="6.76564">
        <ele>890.4</ele>
        <time>2015-11-10T10:11:12Z</time>
      </trkpt>
      <trkpt lat="43.73371" lon="6.76556">
        <ele>892.1</ele>
        <time>2015-11-10T10:11:12Z</time>
      </trkpt>
      <trkpt lat="43.73397" lon="6.76528">
        <ele>892.5</ele>
        <time>2015-11-10T10:11:12Z</time>
      </trkpt>
      <trkpt lat="43.73418" lon="6.76491">
        <ele>893.2</ele>
        <time>2015-11-10T10:11:12Z</time>
      </trkpt>
      <trkpt lat="43.73419" lon="6.76455">
        <ele>894.6</ele>
        <time>2015-11-10T10:11:12Z</time>
      </trkpt>
      <trkpt lat="43.73436" lon="6.76382">
        <ele>893.1</ele>
        <time>2015-11-10T10:11:12Z</time>
      </trkpt>
      <trkpt lat="43.73447" lon="6.76346">
        <ele>894.9</ele>
        <time>2015-11-10T10:11:12Z</time>
      </trkpt>
      <trkpt lat="43.73421" lon="6.76333">
        <ele>894.4</ele>
        <time>2015-11-10T10:11:12Z</time>
      </trkpt>
      <trkpt lat="43.73289" lon="6.7629">
        <ele>889.2</ele>
        <time>2015-11-10T10:11:12Z</time>
      </trkpt>
      <trkpt lat="43.73263" lon="6.76311">
        <ele>884.8</ele>
        <time>2015-11-10T10:11:12Z</time>
      </trkpt>
      <trkpt lat="43.73211" lon="6.76371">
        <ele>884.1</ele>
        <time>2015-11-10T10:11:12Z</time>
      </trkpt>
      <trkpt lat="43.73185" lon="6.76378">
        <ele>882.4</ele>
        <time>2015-11-10T10:11:12Z</time>
      </trkpt>
      <trkpt lat="43.73159" lon="6.76363">
        <ele>879.8</ele>
        <time>2015-11-10T10:11:12Z</time>
      </trkpt>
      <trkpt lat="43.73132" lon="6.76335">
        <ele>876.3</ele>
        <time>2015-11-10T10:11:12Z</time>
      </trkpt>
      <trkpt lat="43.73053" lon="6.76264">
        <ele>870.9</ele>
        <time>2015-11-10T10:11:12Z</time>
      </trkpt>
      <trkpt lat="43.73" lon="6.76243">
        <ele>866.3</ele>
        <time>2015-11-10T10:11:12Z</time>
      </trkpt>
      <trkpt lat="43.72974" lon="6.76208">
        <ele>863.8</ele>
        <time>2015-11-10T10:11:12Z</time>
      </trkpt>
      <trkpt lat="43.72983" lon="6.76172">
        <ele>860.6</ele>
        <time>2015-11-10T10:11:12Z</time>
      </trkpt>
      <trkpt lat="43.7301" lon="6.76152">
        <ele>862.8</ele>
        <time>2015-11-10T10:11:12Z</time>
      </trkpt>
      <trkpt lat="43.73036" lon="6.76124">
        <ele>861.5</ele>
        <time>2015-11-10T10:11:12Z</time>
      </trkpt>
      <trkpt lat="43.73059" lon="6.76088">
        <ele>858.7</ele>
        <time>2015-11-10T10:11:12Z</time>
      </trkpt>
      <trkpt lat="43.72954" lon="6.76159">
        <ele>851</ele>
        <time>2015-11-10T10:11:12Z</time>
      </trkpt>
      <trkpt lat="43.72934" lon="6.76195">
        <ele>847.9</ele>
        <time>2015-11-10T10:11:12Z</time>
      </trkpt>
      <trkpt lat="43.72923" lon="6.76232">
        <ele>845.5</ele>
        <time>2015-11-10T10:11:12Z</time>
      </trkpt>
      <trkpt lat="43.72884" lon="6.76414">
        <ele>836.4</ele>
        <time>2015-11-10T10:11:12Z</time>
      </trkpt>
      <trkpt lat="43.72897" lon="6.76451">
        <ele>836.1</ele>
        <time>2015-11-10T10:11:12Z</time>
      </trkpt>
      <trkpt lat="43.72909" lon="6.76487">
        <ele>833.4</ele>
        <time>2015-11-10T10:11:12Z</time>
      </trkpt>
      <trkpt lat="43.72883" lon="6.76502">
        <ele>830.4</ele>
        <time>2015-11-10T10:11:12Z</time>
      </trkpt>
      <trkpt lat="43.72856" lon="6.76494">
        <ele>828.6</ele>
        <time>2015-11-10T10:11:12Z</time>
      </trkpt>
      <trkpt lat="43.72847" lon="6.76457">
        <ele>827.2</ele>
        <time>2015-11-10T10:11:12Z</time>
      </trkpt>
      <trkpt lat="43.72838" lon="6.76421">
        <ele>822.6</ele>
        <time>2015-11-10T10:11:12Z</time>
      </trkpt>
      <trkpt lat="43.72779" lon="6.76526">
        <ele>817.2</ele>
        <time>2015-11-10T10:11:12Z</time>
      </trkpt>
      <trkpt lat="43.7278" lon="6.76562">
        <ele>813.4</ele>
        <time>2015-11-10T10:11:12Z</time>
      </trkpt>
      <trkpt lat="43.72807" lon="6.76582">
        <ele>814.4</ele>
        <time>2015-11-10T10:11:12Z</time>
      </trkpt>
      <trkpt lat="43.72833" lon="6.76607">
        <ele>815.2</ele>
        <time>2015-11-10T10:11:12Z</time>
      </trkpt>
      <trkpt lat="43.72855" lon="6.76644">
        <ele>811</ele>
        <time>2015-11-10T10:11:12Z</time>
      </trkpt>
      <trkpt lat="43.72836" lon="6.7668">
        <ele>816.9</ele>
        <time>2015-11-10T10:11:12Z</time>
      </trkpt>
      <trkpt lat="43.7281" lon="6.76689">
        <ele>811.1</ele>
        <time>2015-11-10T10:11:12Z</time>
      </trkpt>
      <trkpt lat="43.72729" lon="6.76717">
        <ele>800.4</ele>
        <time>2015-11-10T10:11:12Z</time>
      </trkpt>
      <trkpt lat="43.72545" lon="6.76762">
        <ele>773.9</ele>
        <time>2015-11-10T10:11:12Z</time>
      </trkpt>
      <trkpt lat="43.72518" lon="6.76753">
        <ele>771.8</ele>
        <time>2015-11-10T10:11:12Z</time>
      </trkpt>
      <trkpt lat="43.72492" lon="6.76749">
        <ele>766.7</ele>
        <time>2015-11-10T10:11:12Z</time>
      </trkpt>
      <trkpt lat="43.72466" lon="6.76757">
        <ele>762</ele>
        <time>2015-11-10T10:11:12Z</time>
      </trkpt>
      <trkpt lat="43.72439" lon="6.76768">
        <ele>755.5</ele>
        <time>2015-11-10T10:11:12Z</time>
      </trkpt>
      <trkpt lat="43.7236" lon="6.76833">
        <ele>736.9</ele>
        <time>2015-11-10T10:11:12Z</time>
      </trkpt>
      <trkpt lat="43.72337" lon="6.76869">
        <ele>732.3</ele>
        <time>2015-11-10T10:11:12Z</time>
      </trkpt>
      <trkpt lat="43.7232" lon="6.76906">
        <ele>740.4</ele>
        <time>2015-11-10T10:11:12Z</time>
      </trkpt>
      <trkpt lat="43.72293" lon="6.76918">
        <ele>745.6</ele>
        <time>2015-11-10T10:11:12Z</time>
      </trkpt>
      <trkpt lat="43.72241" lon="6.76918">
        <ele>751.6</ele>
        <time>2015-11-10T10:11:12Z</time>
      </trkpt>
      <trkpt lat="43.72135" lon="6.76936">
        <ele>757.3</ele>
        <time>2015-11-10T10:11:12Z</time>
      </trkpt>
      <trkpt lat="43.72109" lon="6.76933">
        <ele>763</ele>
        <time>2015-11-10T10:11:12Z</time>
      </trkpt>
      <trkpt lat="43.7203" lon="6.76914">
        <ele>767</ele>
        <time>2015-11-10T10:11:12Z</time>
      </trkpt>
      <trkpt lat="43.71898" lon="6.76869">
        <ele>756.4</ele>
        <time>2015-11-10T10:11:12Z</time>
      </trkpt>
      <trkpt lat="43.71845" lon="6.76867">
        <ele>752.6</ele>
        <time>2015-11-10T10:11:12Z</time>
      </trkpt>
      <trkpt lat="43.71819" lon="6.76867">
        <ele>750.3</ele>
        <time>2015-11-10T10:11:12Z</time>
      </trkpt>
      <trkpt lat="43.71792" lon="6.76869">
        <ele>751.1</ele>
        <time>2015-11-10T10:11:12Z</time>
      </trkpt>
      <trkpt lat="43.71766" lon="6.76863">
        <ele>747.8</ele>
        <time>2015-11-10T10:11:12Z</time>
      </trkpt>
      <trkpt lat="43.71661" lon="6.76803">
        <ele>736.1</ele>
        <time>2015-11-10T10:11:12Z</time>
      </trkpt>
      <trkpt lat="43.71608" lon="6.76753">
        <ele>726.8</ele>
        <time>2015-11-10T10:11:12Z</time>
      </trkpt>
      <trkpt lat="43.71582" lon="6.76773">
        <ele>727.2</ele>
        <time>2015-11-10T10:11:12Z</time>
      </trkpt>
      <trkpt lat="43.71529" lon="6.76796">
        <ele>723.8</ele>
        <time>2015-11-10T10:11:12Z</time>
      </trkpt>
      <trkpt lat="43.71292" lon="6.76906">
        <ele>730.3</ele>
        <time>2015-11-10T10:11:12Z</time>
      </trkpt>
      <trkpt lat="43.7116" lon="6.76961">
        <ele>762.6</ele>
        <time>2015-11-10T10:11:12Z</time>
      </trkpt>
      <trkpt lat="43.71136" lon="6.76998">
        <ele>768</ele>
        <time>2015-11-10T10:11:12Z</time>
      </trkpt>
      <trkpt lat="43.71124" lon="6.77034">
        <ele>771</ele>
        <time>2015-11-10T10:11:12Z</time>
      </trkpt>
      <trkpt lat="43.71098" lon="6.77021">
        <ele>751.8</ele>
        <time>2015-11-10T10:11:12Z</time>
      </trkpt>
      <trkpt lat="43.71105" lon="6.77058">
        <ele>758.6</ele>
        <time>2015-11-10T10:11:12Z</time>
      </trkpt>
      <trkpt lat="43.7109" lon="6.77094">
        <ele>750.7</ele>
        <time>2015-11-10T10:11:12Z</time>
      </trkpt>
      <trkpt lat="43.71093" lon="6.77131">
        <ele>759.6</ele>
        <time>2015-11-10T10:11:12Z</time>
      </trkpt>
      <trkpt lat="43.71087" lon="6.7724">
        <ele>776.5</ele>
        <time>2015-11-10T10:11:12Z</time>
      </trkpt>
      <trkpt lat="43.7107" lon="6.77313">
        <ele>791</ele>
        <time>2015-11-10T10:11:12Z</time>
      </trkpt>
      <trkpt lat="43.71034" lon="6.77386">
        <ele>803.9</ele>
        <time>2015-11-10T10:11:12Z</time>
      </trkpt>
      <trkpt lat="43.71008" lon="6.77401">
        <ele>789.5</ele>
        <time>2015-11-10T10:11:12Z</time>
      </trkpt>
      <trkpt lat="43.70981" lon="6.77429">
        <ele>789.2</ele>
        <time>2015-11-10T10:11:12Z</time>
      </trkpt>
      <trkpt lat="43.7096" lon="6.77466">
        <ele>797.7</ele>
        <time>2015-11-10T10:11:12Z</time>
      </trkpt>
      <trkpt lat="43.70944" lon="6.77502">
        <ele>814.2</ele>
        <time>2015-11-10T10:11:12Z</time>
      </trkpt>
      <trkpt lat="43.70905" lon="6.77526">
        <ele>815.6</ele>
        <time>2015-11-10T10:11:12Z</time>
      </trkpt>
      <trkpt lat="43.70888" lon="6.77562">
        <ele>822.2</ele>
        <time>2015-11-10T10:11:12Z</time>
      </trkpt>
      <trkpt lat="43.70901" lon="6.77599">
        <ele>842.8</ele>
        <time>2015-11-10T10:11:12Z</time>
      </trkpt>
      <trkpt lat="43.70874" lon="6.77629">
        <ele>838.3</ele>
        <time>2015-11-10T10:11:12Z</time>
      </trkpt>
      <trkpt lat="43.70849" lon="6.77665">
        <ele>843.6</ele>
        <time>2015-11-10T10:11:12Z</time>
      </trkpt>
      <trkpt lat="43.70839" lon="6.77704">
        <ele>853.3</ele>
        <time>2015-11-10T10:11:12Z</time>
      </trkpt>
      <trkpt lat="43.70823" lon="6.77777">
        <ele>859</ele>
        <time>2015-11-10T10:11:12Z</time>
      </trkpt>
      <trkpt lat="43.70797" lon="6.77807">
        <ele>866.4</ele>
        <time>2015-11-10T10:11:12Z</time>
      </trkpt>
      <trkpt lat="43.7077" lon="6.7782">
        <ele>866.3</ele>
        <time>2015-11-10T10:11:12Z</time>
      </trkpt>
      <trkpt lat="43.70744" lon="6.77826">
        <ele>862</ele>
        <time>2015-11-10T10:11:12Z</time>
      </trkpt>
      <trkpt lat="43.70639" lon="6.77895">
        <ele>881.2</ele>
        <time>2015-11-10T10:11:12Z</time>
      </trkpt>
      <trkpt lat="43.70612" lon="6.77916">
        <ele>882.1</ele>
        <time>2015-11-10T10:11:12Z</time>
      </trkpt>
      <trkpt lat="43.70594" lon="6.77953">
        <ele>889</ele>
        <time>2015-11-10T10:11:12Z</time>
      </trkpt>
      <trkpt lat="43.70452" lon="6.78206">
        <ele>931.2</ele>
        <time>2015-11-10T10:11:12Z</time>
      </trkpt>
      <trkpt lat="43.70452" lon="6.78242">
        <ele>948.2</ele>
        <time>2015-11-10T10:11:12Z</time>
      </trkpt>
      <trkpt lat="43.70442" lon="6.78279">
        <ele>959.5</ele>
        <time>2015-11-10T10:11:12Z</time>
      </trkpt>
      <trkpt lat="43.70336" lon="6.78225">
        <ele>943.8</ele>
        <time>2015-11-10T10:11:12Z</time>
      </trkpt>
      <trkpt lat="43.7031" lon="6.78225">
        <ele>948.3</ele>
        <time>2015-11-10T10:11:12Z</time>
      </trkpt>
      <trkpt lat="43.70283" lon="6.78242">
        <ele>948.5</ele>
        <time>2015-11-10T10:11:12Z</time>
      </trkpt>
      <trkpt lat="43.70276" lon="6.78279">
        <ele>935.1</ele>
        <time>2015-11-10T10:11:12Z</time>
      </trkpt>
      <trkpt lat="43.70293" lon="6.78315">
        <ele>922.6</ele>
        <time>2015-11-10T10:11:12Z</time>
      </trkpt>
      <trkpt lat="43.70319" lon="6.78335">
        <ele>919.9</ele>
        <time>2015-11-10T10:11:12Z</time>
      </trkpt>
      <trkpt lat="43.704" lon="6.78373">
        <ele>918</ele>
        <time>2015-11-10T10:11:12Z</time>
      </trkpt>
      <trkpt lat="43.70424" lon="6.7841">
        <ele>909.2</ele>
        <time>2015-11-10T10:11:12Z</time>
      </trkpt>
      <trkpt lat="43.70553" lon="6.78609">
        <ele>881.6</ele>
        <time>2015-11-10T10:11:12Z</time>
      </trkpt>
      <trkpt lat="43.70589" lon="6.78719">
        <ele>871.6</ele>
        <time>2015-11-10T10:11:12Z</time>
      </trkpt>
      <trkpt lat="43.70586" lon="6.78755">
        <ele>865.3</ele>
        <time>2015-11-10T10:11:12Z</time>
      </trkpt>
      <trkpt lat="43.70566" lon="6.78792">
        <ele>856.1</ele>
        <time>2015-11-10T10:11:12Z</time>
      </trkpt>
      <trkpt lat="43.70547" lon="6.78828">
        <ele>849.1</ele>
        <time>2015-11-10T10:11:12Z</time>
      </trkpt>
      <trkpt lat="43.70541" lon="6.78865">
        <ele>846.4</ele>
        <time>2015-11-10T10:11:12Z</time>
      </trkpt>
      <trkpt lat="43.70555" lon="6.78901">
        <ele>844.1</ele>
        <time>2015-11-10T10:11:12Z</time>
      </trkpt>
      <trkpt lat="43.70573" lon="6.78938">
        <ele>841.5</ele>
        <time>2015-11-10T10:11:12Z</time>
      </trkpt>
      <trkpt lat="43.70578" lon="6.78976">
        <ele>837</ele>
        <time>2015-11-10T10:11:12Z</time>
      </trkpt>
      <trkpt lat="43.70581" lon="6.79049">
        <ele>833</ele>
        <time>2015-11-10T10:11:12Z</time>
      </trkpt>
      <trkpt lat="43.70573" lon="6.79086">
        <ele>829.8</ele>
        <time>2015-11-10T10:11:12Z</time>
      </trkpt>
      <trkpt lat="43.70561" lon="6.79122">
        <ele>826.3</ele>
        <time>2015-11-10T10:11:12Z</time>
      </trkpt>
      <trkpt lat="43.70428" lon="6.79457">
        <ele>804.7</ele>
        <time>2015-11-10T10:11:12Z</time>
      </trkpt>
      <trkpt lat="43.70429" lon="6.7953">
        <ele>802</ele>
        <time>2015-11-10T10:11:12Z</time>
      </trkpt>
      <trkpt lat="43.70438" lon="6.79566">
        <ele>801.7</ele>
        <time>2015-11-10T10:11:12Z</time>
      </trkpt>
      <trkpt lat="43.70459" lon="6.79603">
        <ele>799.2</ele>
        <time>2015-11-10T10:11:12Z</time>
      </trkpt>
      <trkpt lat="43.70485" lon="6.79622">
        <ele>799</ele>
        <time>2015-11-10T10:11:12Z</time>
      </trkpt>
      <trkpt lat="43.70539" lon="6.79631">
        <ele>810.1</ele>
        <time>2015-11-10T10:11:12Z</time>
      </trkpt>
      <trkpt lat="43.70566" lon="6.79624">
        <ele>817.7</ele>
        <time>2015-11-10T10:11:12Z</time>
      </trkpt>
      <trkpt lat="43.70671" lon="6.79592">
        <ele>827.6</ele>
        <time>2015-11-10T10:11:12Z</time>
      </trkpt>
      <trkpt lat="43.70687" lon="6.79556">
        <ele>838.8</ele>
        <time>2015-11-10T10:11:12Z</time>
      </trkpt>
      <trkpt lat="43.70702" lon="6.79519">
        <ele>849.6</ele>
        <time>2015-11-10T10:11:12Z</time>
      </trkpt>
      <trkpt lat="43.7073" lon="6.79487">
        <ele>853.2</ele>
        <time>2015-11-10T10:11:12Z</time>
      </trkpt>
      <trkpt lat="43.70756" lon="6.79468">
        <ele>851.4</ele>
        <time>2015-11-10T10:11:12Z</time>
      </trkpt>
      <trkpt lat="43.70891" lon="6.79403">
        <ele>868.4</ele>
        <time>2015-11-10T10:11:12Z</time>
      </trkpt>
      <trkpt lat="43.7113" lon="6.79356">
        <ele>917.5</ele>
        <time>2015-11-10T10:11:12Z</time>
      </trkpt>
      <trkpt lat="43.7114" lon="6.7932">
        <ele>936</ele>
        <time>2015-11-10T10:11:12Z</time>
      </trkpt>
      <trkpt lat="43.71166" lon="6.79292">
        <ele>949.5</ele>
        <time>2015-11-10T10:11:12Z</time>
      </trkpt>
      <trkpt lat="43.71219" lon="6.79255">
        <ele>966.9</ele>
        <time>2015-11-10T10:11:12Z</time>
      </trkpt>
      <trkpt lat="43.71245" lon="6.79247">
        <ele>975.9</ele>
        <time>2015-11-10T10:11:12Z</time>
      </trkpt>
      <trkpt lat="43.71273" lon="6.79242">
        <ele>984.8</ele>
        <time>2015-11-10T10:11:12Z</time>
      </trkpt>
      <trkpt lat="43.71271" lon="6.79229">
        <ele>989.2</ele>
        <time>2015-11-10T10:11:12Z</time>
      </trkpt>
      <trkpt lat="43.71298" lon="6.79238">
        <ele>992.4</ele>
        <time>2015-11-10T10:11:12Z</time>
      </trkpt>
      <trkpt lat="43.71541" lon="6.79324">
        <ele>1022.9</ele>
        <time>2015-11-10T10:11:12Z</time>
      </trkpt>
      <trkpt lat="43.71779" lon="6.79461">
        <ele>1022.1</ele>
        <time>2015-11-10T10:11:12Z</time>
      </trkpt>
      <trkpt lat="43.71806" lon="6.79442">
        <ele>1027</ele>
        <time>2015-11-10T10:11:12Z</time>
      </trkpt>
      <trkpt lat="43.71834" lon="6.79412">
        <ele>1031.7</ele>
        <time>2015-11-10T10:11:12Z</time>
      </trkpt>
      <trkpt lat="43.71859" lon="6.79375">
        <ele>1041</ele>
        <time>2015-11-10T10:11:12Z</time>
      </trkpt>
      <trkpt lat="43.71886" lon="6.7936">
        <ele>1048.6</ele>
        <time>2015-11-10T10:11:12Z</time>
      </trkpt>
      <trkpt lat="43.71912" lon="6.7936">
        <ele>1050.2</ele>
        <time>2015-11-10T10:11:12Z</time>
      </trkpt>
      <trkpt lat="43.71994" lon="6.79382">
        <ele>1057.3</ele>
        <time>2015-11-10T10:11:12Z</time>
      </trkpt>
      <trkpt lat="43.72047" lon="6.79423">
        <ele>1057</ele>
        <time>2015-11-10T10:11:12Z</time>
      </trkpt>
      <trkpt lat="43.72073" lon="6.79423">
        <ele>1059.9</ele>
        <time>2015-11-10T10:11:12Z</time>
      </trkpt>
      <trkpt lat="43.72126" lon="6.79408">
        <ele>1065.8</ele>
        <time>2015-11-10T10:11:12Z</time>
      </trkpt>
      <trkpt lat="43.72103" lon="6.79408">
        <ele>1066.5</ele>
        <time>2015-11-10T10:11:12Z</time>
      </trkpt>
      <trkpt lat="43.72129" lon="6.79397">
        <ele>1072.7</ele>
        <time>2015-11-10T10:11:12Z</time>
      </trkpt>
      <trkpt lat="43.72155" lon="6.79401">
        <ele>1072.2</ele>
        <time>2015-11-10T10:11:12Z</time>
      </trkpt>
      <trkpt lat="43.72208" lon="6.79433">
        <ele>1072.3</ele>
        <time>2015-11-10T10:11:12Z</time>
      </trkpt>
      <trkpt lat="43.72343" lon="6.79506">
        <ele>1081.7</ele>
        <time>2015-11-10T10:11:12Z</time>
      </trkpt>
      <trkpt lat="43.72369" lon="6.79493">
        <ele>1083.2</ele>
        <time>2015-11-10T10:11:12Z</time>
      </trkpt>
      <trkpt lat="43.72363" lon="6.79455">
        <ele>1086.8</ele>
        <time>2015-11-10T10:11:12Z</time>
      </trkpt>
      <trkpt lat="43.7239" lon="6.79435">
        <ele>1086.3</ele>
        <time>2015-11-10T10:11:12Z</time>
      </trkpt>
      <trkpt lat="43.72469" lon="6.79397">
        <ele>1076.8</ele>
        <time>2015-11-10T10:11:12Z</time>
      </trkpt>
      <trkpt lat="43.72498" lon="6.79399">
        <ele>1073.9</ele>
        <time>2015-11-10T10:11:12Z</time>
      </trkpt>
      <trkpt lat="43.72714" lon="6.79399">
        <ele>1054.3</ele>
        <time>2015-11-10T10:11:12Z</time>
      </trkpt>
      <trkpt lat="43.72793" lon="6.79435">
        <ele>1045.4</ele>
        <time>2015-11-10T10:11:12Z</time>
      </trkpt>
      <trkpt lat="43.72819" lon="6.79414">
        <ele>1040.9</ele>
        <time>2015-11-10T10:11:12Z</time>
      </trkpt>
      <trkpt lat="43.72819" lon="6.79403">
        <ele>1040.5</ele>
        <time>2015-11-10T10:11:12Z</time>
      </trkpt>
      <trkpt lat="43.72942" lon="6.79238">
        <ele>1037.9</ele>
        <time>2015-11-10T10:11:12Z</time>
      </trkpt>
      <trkpt lat="43.72942" lon="6.79199">
        <ele>1036.9</ele>
        <time>2015-11-10T10:11:12Z</time>
      </trkpt>
      <trkpt lat="43.72926" lon="6.79047">
        <ele>1025.6</ele>
        <time>2015-11-10T10:11:12Z</time>
      </trkpt>
      <trkpt lat="43.72937" lon="6.79011">
        <ele>1023.8</ele>
        <time>2015-11-10T10:11:12Z</time>
      </trkpt>
      <trkpt lat="43.72943" lon="6.78972">
        <ele>1023.5</ele>
        <time>2015-11-10T10:11:12Z</time>
      </trkpt>
      <trkpt lat="43.7294" lon="6.78862">
        <ele>1017.6</ele>
        <time>2015-11-10T10:11:12Z</time>
      </trkpt>
      <trkpt lat="43.72921" lon="6.78639">
        <ele>1001.3</ele>
        <time>2015-11-10T10:11:12Z</time>
      </trkpt>
      <trkpt lat="43.72892" lon="6.78566">
        <ele>987.9</ele>
        <time>2015-11-10T10:11:12Z</time>
      </trkpt>
      <trkpt lat="43.729" lon="6.7853">
        <ele>985</ele>
        <time>2015-11-10T10:11:12Z</time>
      </trkpt>
      <trkpt lat="43.72909" lon="6.78457">
        <ele>979.8</ele>
        <time>2015-11-10T10:11:12Z</time>
      </trkpt>
      <trkpt lat="43.72906" lon="6.7842">
        <ele>976.3</ele>
        <time>2015-11-10T10:11:12Z</time>
      </trkpt>
      <trkpt lat="43.72883" lon="6.78126">
        <ele>956.1</ele>
        <time>2015-11-10T10:11:12Z</time>
      </trkpt>
    </trkseg>
  </trk>
</gpx>